UNR Ag. Experiment Farm, Sparks, Nevada Weather observations

Data are for 10 minute period ending at time listed.
 Day   Time   Solar   Ave.   Ave.  Ave.  Vector  Max.   Baro.   Total    
  of    of     Rad.   Air    Rel.  Wind   Wind   Wind  Press.  Precip.   
Year   Day            Temp.  Hum.  Speed  Dir.   Gust                    
2026   (PST)  Kw/m2    F      %     mph   deg.    mph    mb.     in.     
-------------------------------------------------------------------------
 123   15:40   0.42   57.9    52    9.6   212    13.6   862.1    0.00 
 123   15:50   0.64   60.3    50    7.8   267    15.4   862.1    0.00 
 123   16:00   0.67   60.5    51    9.2   309    15.1   862.0    0.00 
 123   16:10   0.63   58.5    54   12.5   305    19.4   862.1    0.00 
 123   16:20   0.28   57.4    54   11.7   296    18.9   862.2    0.00 
 123   16:30   0.19   55.5    55   11.7   286    17.2   862.2    0.00 
 123   16:40   0.18   56.1    53    6.1   298    10.8   862.1    0.00 
 123   16:50   0.13   56.4    53    6.3   296    10.7   862.2    0.00 
 123   17:00   0.13   56.3    52    6.3   292    11.3   862.1    0.00 
 123   17:10   0.12   56.0    52    8.3   282    12.7   862.1    0.00 
 123   17:20   0.18   56.0    51    7.6   284    11.9   862.3    0.00 
 123   17:30   0.19   56.8    51    5.8   282    11.2   862.4    0.00 
 123   17:40   0.12   57.1    49    3.7   279     6.7   862.5    0.00 
 123   17:50   0.10   57.0    52    2.7   250     4.7   862.6    0.00 
 123   18:00   0.10   57.1    51    3.6   238     6.4   862.8    0.00 
 123   18:10   0.08   56.7    53    5.6   237     8.1   862.7    0.00 
 123   18:20   0.05   56.2    54    5.7   242     7.3   862.5    0.00 
 123   18:30   0.03   56.3    53    3.3   263     6.6   862.2    0.00 
 123   18:40   0.01   55.8    54    3.4   292     4.3   862.0    0.00 
 123   18:50   0.01   54.7    57    2.9   315     4.6   861.9    0.00 
 123   19:00   0.00   54.7    57    2.6   220     5.0   861.9    0.00 
 123   19:10   0.00   54.0    64    3.6   122     4.3   861.9    0.00 
 123   19:20   0.00   53.3    66    1.9   281     3.4   861.8    0.00 
 123   19:30   0.00   51.7    69    2.2   267     4.8   861.7    0.00 
 123   19:40   0.00   53.2    59    3.4   298     8.9   861.8    0.00 
 123   19:50   0.00   53.3    58    1.3   320     3.8   862.1    0.00 
 123   20:00   0.00   52.5    64    2.0   125     3.7   862.2    0.00 
 123   20:10   0.00   50.1    71    1.9    92     3.8   862.3    0.00 
 123   20:20   0.00   49.9    69    1.7    13     4.2   862.3    0.00 
 123   20:30   0.00   49.2    70    3.5   350     5.1   862.3    0.00 
 123   20:40   0.00   49.6    66    3.8   315     5.1   862.3    0.00 
 123   20:50   0.00   47.5    74    3.3   221     3.9   862.4    0.00 
 123   21:00   0.00   46.9    76    3.4   213     4.3   862.4    0.00 
 123   21:10   0.00   47.3    75    4.0   203     5.1   862.4    0.00 
 123   21:20   0.00   49.3    70    2.4   229     4.1   862.2    0.00 
 123   21:30   0.00   49.7    72    2.6   151     4.9   862.1    0.00 
 123   21:40   0.00   48.7    75    3.5   148     4.3   862.0    0.00 
 123   21:50   0.00   48.2    76    3.4   132     4.1   862.1    0.00 
 123   22:00   0.00   46.9    76    3.2   302     5.3   862.0    0.00 
 123   22:10   0.00   49.0    68    2.5   274     3.6   862.1    0.00 
 123   22:20   0.00   49.4    67    4.1   279     5.7   862.1    0.00 
 123   22:30   0.00   49.4    66    2.9   292     5.0   862.1    0.00 
 123   22:40   0.00   50.6    63    2.8   292     4.0   862.1    0.00 
 123   22:50   0.00   51.1    62    1.3   287     1.8   862.1    0.00 
 123   23:00   0.00   49.5    67    1.5    24     3.7   862.0    0.00 
 123   23:10   0.00   46.8    78    1.9   102     3.4   861.9    0.00 
 123   23:20   0.00   47.4    80    3.1   144     5.1   862.0    0.00 
 123   23:30   0.00   47.5    80    2.9   157     4.0   861.9    0.00 
 123   23:40   0.00   48.5    73    3.0   204     4.8   861.8    0.00 
 123   23:50   0.00   48.3    75    2.8   180     5.9   861.9    0.00 
 124    0:00   0.00   47.9    75    1.5   219     2.6   861.9    0.00 
 124    0:10   0.00   48.1    75    1.3   196     2.5   862.0    0.00 
 124    0:20   0.00   47.6    76    1.0   150     1.9   862.1    0.00 
 124    0:30   0.00   47.6    76    0.6   227     1.6   862.0    0.00 
 124    0:40   0.00   47.2    80    2.1   159     3.3   862.0    0.00 
 124    0:50   0.00   46.3    82    2.9   133     3.7   861.9    0.00 
 124    1:00   0.00   47.1    79    1.9    79     2.8   861.9    0.00 
 124    1:10   0.00   45.6    82    1.8     8     3.2   861.9    0.00 
 124    1:20   0.00   45.1    84    0.8   260     2.7   861.9    0.00 
 124    1:30   0.00   45.8    81    0.1   282     1.5   861.8    0.00 
 124    1:40   0.00   46.2    81    1.6   249     3.3   861.8    0.00 
 124    1:50   0.00   46.3    81    1.5   237     2.2   861.9    0.00 
 124    2:00   0.00   46.4    80    0.9   236     2.2   861.8    0.00 
 124    2:10   0.00   46.4    79    1.2     6     1.8   861.8    0.00 
 124    2:20   0.00   46.7    80    1.3    67     3.0   861.8    0.00 
 124    2:30   0.00   45.4    84    1.7   236     3.2   861.9    0.00 
 124    2:40   0.00   46.0    82    0.5   331     2.5   862.0    0.00 
 124    2:50   0.00   47.2    76    2.0    23     2.5   862.0    0.00 
 124    3:00   0.00   47.7    75    2.1   353     2.6   862.0    0.00 
 124    3:10   0.00   47.3    78    0.8    32     2.1   862.0    0.00 
 124    3:20   0.00   46.5    81    2.5    74     3.6   861.9    0.00 
 124    3:30   0.00   46.9    83    1.8   169     4.4   861.7    0.00 
 124    3:40   0.00   47.0    82    3.1   137     4.5   861.6    0.00 
 124    3:50   0.00   49.0    70    2.2    65     5.3   861.4    0.00 
 124    4:00   0.00   48.5    73    3.7    68     5.2   861.4    0.00 
 124    4:10   0.00   46.4    78    2.1    61     4.3   861.3    0.00 
 124    4:20   0.00   46.4    77    0.7    63     3.1   861.3    0.00 
 124    4:30   0.00   46.8    76    1.4   108     3.1   861.2    0.00 
 124    4:40   0.00   46.2    75    3.2    48     4.4   861.2    0.00 
 124    4:50   0.00   45.3    78    4.7    48     5.7   861.2    0.00 
 124    5:00   0.00   46.1    77    3.5    38     4.9   861.2    0.00 
 124    5:10   0.01   45.9    79    1.7    46     3.6   861.2    0.00 
 124    5:20   0.01   46.5    75    3.2    20     4.9   861.2    0.00 
 124    5:30   0.02   46.5    78    2.3   231     3.4   861.3    0.00 
 124    5:40   0.02   45.7    82    3.2   205     4.2   861.2    0.00 
 124    5:50   0.04   46.4    81    2.0   217     4.4   861.2    0.00 
 124    6:00   0.05   47.1    81    1.4   166     2.2   861.4    0.00 
 124    6:10   0.06   47.7    79    1.3   255     2.4   861.3    0.00 
 124    6:20   0.06   48.1    81    1.1    40     1.9   861.2    0.00 
 124    6:30   0.09   48.5    80    2.2    77     2.8   861.2    0.00 
 124    6:40   0.08   49.5    75    2.3   109     3.5   861.3    0.00 
 124    6:50   0.09   50.5    71    1.9   109     2.8   861.4    0.00 
 124    7:00   0.15   51.4    66    2.2   108     2.9   861.5    0.00 
 124    7:10   0.15   52.2    63    1.5    82     3.1   861.5    0.00 
 124    7:20   0.11   52.3    63    1.6   343     3.0   861.5    0.00 
 124    7:30   0.04   52.1    64    1.9   126     2.5   861.7    0.00 
 124    7:40   0.03   51.7    66    1.5   153     2.4   861.8    0.00 
 124    7:50   0.03   51.4    68    1.6   227     3.0   861.9    0.00 
 124    8:00   0.06   51.0    70    2.1   282     3.3   862.1    0.00 
 124    8:10   0.38   51.2    76    3.6   256     6.5   861.8    0.00 
 124    8:20   0.53   52.9    71    4.1   245     6.2   861.8    0.00 
 124    8:30   0.39   53.6    69    3.8   243     7.3   861.8    0.00 
 124    8:40   0.28   53.1    69    4.3   239     6.8   861.9    0.00 
 124    8:50   0.12   52.5    68    1.8   223     4.1   861.9    0.00 
 124    9:00   0.10   52.6    69    0.9   246     2.4   861.9    0.00 
 124    9:10   0.11   52.8    68    0.1    24     0.9   861.9    0.00 
 124    9:20   0.13   52.8    69    2.1   286     6.7   861.9    0.00 
 124    9:30   0.22   53.1    69    2.8   288     6.2   862.0    0.00 
 124    9:40   0.33   54.0    68    4.6   287     7.3   861.8    0.00 
 124    9:50   0.27   54.6    66    6.4   286     9.7   861.7    0.00 
 124   10:00   0.20   54.6    64    6.9   296    10.4   861.7    0.00 
 124   10:10   0.27   55.1    63    6.2   316     8.9   861.7    0.00 
 124   10:20   0.25   55.6    61    5.2   327     8.1   861.7    0.00 
 124   10:30   0.25   55.9    59    5.3   320     9.6   861.6    0.00 
 124   10:40   0.30   56.5    56    5.7   301     8.7   861.7    0.00 
 124   10:50   0.33   56.9    56    6.5   283    10.6   861.6    0.00 
 124   11:00   0.35   57.1    57    8.1   258    12.3   861.5    0.00 
 124   11:10   0.29   56.7    63    7.6   216    11.6   861.5    0.00 
 124   11:20   0.22   55.5    68    9.3   186    12.4   861.5    0.00 
 124   11:30   0.22   55.4    66    8.3   187    12.8   861.5    0.00 
 124   11:40   0.26   55.7    64    9.0   191    13.4   861.4    0.00 
 124   11:50   0.19   55.5    62    9.5   187    13.2   861.3    0.00 
 124   12:00   0.11   55.0    63    9.1   191    12.6   861.3    0.00 
 124   12:10   0.09   54.4    68    9.3   164    14.5   861.4    0.01 
 124   12:20   0.39   53.1    77   10.1   185    14.2   861.5    0.08 
 124   12:30   0.94   53.9    82   12.3   198    19.4   861.2    0.00 
 124   12:40   1.07   55.4    79   11.1   195    16.4   861.0    0.00 
 124   12:50   1.05   56.4    76   10.7   177    16.5   861.1    0.00 
 124   13:00   1.05   56.4    72   12.0   169    16.8   861.1    0.00 
 124   13:10   1.05   57.3    69   11.5   166    16.3   861.0    0.00 
 124   13:20   1.02   57.3    64   13.6   173    18.0   861.0    0.00 
 124   13:30   1.01   57.7    61   12.3   180    19.3   860.8    0.00 
 124   13:40   0.90   58.5    59   10.3   177    15.6   860.7    0.00 
 124   13:50   0.73   59.4    55   10.7   175    16.3   860.4    0.00 
 124   14:00   0.57   58.5    55   10.1   179    16.9   860.2    0.00 
 124   14:10   0.81   59.5    54    9.5   176    14.9   860.2    0.00 
 124   14:20   0.83   59.9    55    8.9   173    14.4   860.2    0.00 
 124   14:30   0.82   60.0    51   10.4   167    17.5   860.0    0.00 
 124   14:40   0.71   60.7    50    7.6   171    12.6   860.0    0.00 
 124   14:50   0.30   59.9    52    6.8   206    13.1   860.0    0.00 
 124   15:00   0.45   59.5    51    7.7   234    14.7   860.0    0.00 
 124   15:10   0.34   59.4    52   10.1   248    15.7   859.8    0.00 
 124   15:20   0.64   59.3    52    8.5   203    15.7   859.8    0.00 
 124   15:30   0.26   58.1    55   11.0   183    16.6   859.8    0.00 

Return to Sparks, Nevada, UNR Ag Experiment Farm graphs page.


Western Regional Climate Center,wrcc@dri.edu